Orbital Elements at Epoch 2459000.5 (2020-May-31.0) TDB
Reference: JPL 21 (heliocentric ecliptic J2000)
Element | Value | Uncertainty (1-sigma) | Units |
e | .2122259804894493 | 4.356e-08 | |
a | 2.642330692256591 | 1.5149e-08 | au |
q | 2.081559470315071 | 1.1612e-07 | au |
i | 11.22336012749837 | 5.0737e-06 | deg |
node | 287.1578632525906 | 2.834e-05 | deg |
peri | 339.0815248607942 | 3.1583e-05 | deg |
M | 88.18893146612261 | 1.4871e-05 | deg |
tp | 2458616.181968963088 (2019-May-12.68196896) | 6.4002e-05 | TDB |
period | 1568.841904229631 4.30 | 1.3492e-05 3.694e-08 | d yr |
n | .2294686284382335 | 1.9734e-09 | deg/d |
Q | 3.203101914198111 | 1.8364e-08 | au |
|
| | Orbit Determination Parameters
Additional Information
|